Theta_e
327 326 326 324 324 325 324 324 325 325 325 324 324 323 322 322 320 321 321 321 321 322 322 321 320 320 320 320 320 318 318 318 315 313 312 313 310 312 315 313 313 313 310 309 312 311 310 307 308 312 312 315 316 318 319 317 317 312 309 308 309 310 311
327 327 327 328 325 325 323 323 324 323 323 322 321 321 319 321 322 320 320 320 320 321 323 321 320 320 318 317 316 316 315 315 316 314 312 311 311 310 310 311 310 310 309 309 310 311 311 309 308 309 310 314 314 316 320 317 317 315 310 307 308 308 310
328 326 325 324 323 323 323 322 322 321 320 320 320 318 318 319 319 320 320 320 319 322 322 319 318 317 317 316 315 315 314 313 313 313 312 311 310 310 310 310 308 309 308 309 310 311 310 311 308 309 309 308 307 311 318 316 315 314 311 307 305 305 306
327 325 323 322 323 322 321 321 320 319 319 318 318 317 317 318 319 321 319 319 321 323 320 318 317 316 316 314 314 313 312 311 310 310 310 310 309 308 308 308 307 307 308 307 308 308 309 309 310 310 310 310 308 307 312 318 314 311 311 307 303 303 304
327 325 323 322 322 321 320 319 319 319 318 318 316 316 316 316 319 318 319 318 319 318 318 318 317 316 315 314 313 312 310 310 310 309 307 307 307 306 305 305 305 305 305 305 307 307 306 307 309 308 309 310 306 306 311 315 312 309 305 307 303 302 303
326 325 323 322 322 321 319 318 318 317 317 316 315 315 314 315 318 317 317 317 317 318 317 317 316 315 314 312 311 310 309 308 308 307 306 305 305 304 303 303 303 303 302 304 304 304 305 305 307 305 306 307 304 304 307 308 304 306 304 304 304 302 302
325 324 323 323 322 321 320 318 318 317 316 315 315 314 315 316 317 317 317 316 316 317 317 316 316 315 313 311 310 309 308 308 308 306 305 305 305 304 304 302 302 302 301 302 302 303 303 303 303 304 304 307 304 302 304 305 302 299 300 302 304 302 301
324 323 323 323 322 320 319 318 318 317 316 316 314 315 316 316 317 317 316 315 315 315 315 315 315 313 313 312 311 309 309 307 307 307 305 304 304 303 302 302 302 301 301 301 301 302 303 303 302 302 304 303 304 303 301 302 299 298 297 299 303 301 301
324 322 322 322 321 320 319 318 318 317 317 316 316 316 316 316 316 315 315 314 314 314 314 314 312 311 310 309 308 308 307 310 306 305 304 304 303 302 302 301 300 300 300 301 301 302 302 303 303 302 302 303 301 297 297 296 296 295 298 297 299 300 300
321 321 321 320 319 319 319 318 318 318 316 315 317 316 315 314 314 314 313 313 313 313 313 313 312 310 309 308 307 306 306 306 306 304 303 303 302 302 301 301 300 299 299 300 300 301 302 302 302 302 301 301 300 296 293 291 294 293 295 297 295 298 300
321 320 320 319 319 319 318 318 318 317 315 316 316 317 316 315 314 316 313 312 312 313 312 312 311 309 308 307 307 306 305 305 305 305 305 303 302 302 302 301 300 299 299 299 299 301 301 301 301 300 300 300 300 296 294 291 291 294 294 296 296 296 298
320 320 320 319 319 318 317 317 317 315 314 314 316 315 314 312 312 311 311 311 312 312 311 311 310 308 307 306 306 305 305 304 304 303 303 303 303 302 300 300 300 299 299 298 299 299 300 301 300 300 299 299 298 297 295 292 288 292 295 294 296 298 297
320 320 319 318 318 318 317 316 315 314 314 314 313 315 313 311 311 310 310 310 310 311 310 310 309 308 307 306 305 304 304 304 303 302 302 303 302 301 300 299 299 299 299 298 298 298 299 299 300 299 299 298 297 297 296 292 290 290 294 294 295 296 297
318 319 318 318 318 317 316 316 314 314 313 312 313 313 312 310 309 309 309 310 310 310 309 308 308 307 306 305 304 304 303 303 302 302 302 301 302 301 300 299 299 299 299 298 298 298 298 298 298 299 299 298 297 297 296 294 291 291 293 295 295 296 297
318 318 317 317 316 315 315 314 312 311 310 309 313 312 310 309 308 307 307 307 308 309 309 308 307 307 306 304 303 304 303 302 301 301 301 300 300 301 299 298 298 298 298 298 298 298 297 298 298 297 298 297 296 297 297 295 292 291 290 294 294 296 296
317 316 316 315 314 314 313 311 311 310 310 310 311 310 308 307 306 306 306 306 308 308 308 307 307 306 305 304 303 302 302 301 301 300 300 300 299 299 298 298 297 298 299 297 297 297 298 297 298 297 297 297 296 296 297 296 293 291 291 291 293 293 294
315 315 314 314 313 311 310 310 310 310 309 309 307 307 306 305 305 305 305 306 306 307 307 307 306 306 305 304 303 302 301 301 300 300 300 299 299 299 298 297 297 297 297 296 296 297 297 297 297 297 296 297 296 296 297 296 295 292 291 290 291 292 293
314 313 313 312 311 310 309 309 309 308 307 306 305 305 305 304 304 304 304 304 305 304 304 304 303 303 303 303 303 302 301 300 299 299 299 300 303 298 299 297 296 296 296 296 296 296 296 296 297 297 296 296 296 296 297 296 294 293 291 290 290 292 293
313 312 312 311 310 310 309 308 307 307 306 304 304 303 303 303 303 302 302 302 303 303 303 303 302 302 301 301 301 301 300 300 299 299 298 298 298 298 297 297 297 295 295 294 295 295 296 296 297 296 296 296 296 296 295 295 295 293 291 290 290 290 292
313 312 311 310 310 309 307 307 306 305 305 304 303 302 301 301 301 301 301 301 302 302 302 301 301 300 300 300 299 299 298 297 297 297 296 296 296 296 297 297 297 296 295 294 295 294 294 295 297 295 296 296 295 295 295 294 294 292 291 290 290 290 290
313 312 311 310 309 307 306 305 305 304 304 302 302 301 301 300 300 300 300 300 301 301 301 300 299 299 299 299 299 298 297 297 296 295 295 295 295 295 296 297 297 298 298 297 297 295 294 296 295 296 295 296 295 295 294 294 293 292 291 290 289 289 290
313 312 311 309 307 306 305 304 304 303 302 302 302 300 300 299 299 298 298 299 299 300 300 299 299 299 298 298 297 297 296 296 296 295 294 294 294 294 294 296 298 299 305 306 304 302 302 303 297 295 295 294 296 294 293 293 292 291 290 290 289 290 290
312 310 309 308 307 305 304 303 302 301 300 300 299 299 299 299 298 298 297 297 298 299 299 299 302 300 300 298 296 296 296 295 295 294 295 294 293 294 293 293 301 305 305 305 303 299 297 298 302 299 295 293 293 294 293 292 291 291 291 290 289 289 289
310 309 309 308 307 305 303 302 301 300 300 299 299 299 298 297 297 297 296 296 296 296 297 298 296 295 295 297 296 295 294 293 293 293 293 292 292 293 292 292 293 300 301 301 299 298 296 296 296 296 297 298 300 294 292 292 291 290 291 290 289 289 289
309 308 308 307 306 304 302 301 300 299 299 298 298 297 296 296 295 295 295 295 295 295 295 297 294 294 294 295 297 296 293 293 293 292 291 291 291 292 292 292 292 295 298 300 296 294 298 297 296 296 296 295 294 294 295 294 292 291 290 290 290 289 289
309 308 307 306 305 303 301 300 300 299 298 298 297 296 295 295 294 294 294 294 293 294 292 294 293 294 293 293 294 295 292 292 292 291 290 290 290 290 290 293 293 292 294 300 299 292 293 296 298 298 298 299 299 297 292 292 294 295 290 290 290 289 289
309 308 307 306 304 302 301 300 299 299 298 297 295 295 294 294 294 293 293 293 292 292 291 294 293 293 293 292 292 293 291 291 291 290 290 289 290 289 290 290 291 292 291 292 293 292 293 294 295 295 295 294 295 297 296 295 294 294 295 293 291 290 290
309 308 306 305 303 302 301 300 299 298 297 296 295 294 293 293 293 294 292 292 292 292 293 293 292 292 292 292 292 293 291 292 291 290 289 289 289 289 289 291 290 290 290 291 294 293 293 294 294 295 294 293 293 293 293 293 293 293 294 293 292 290 290
308 307 305 304 302 301 299 299 298 297 296 295 294 294 293 294 293 292 292 292 292 291 291 292 292 292 292 292 293 294 291 291 291 290 289 290 290 289 289 289 289 289 289 290 294 293 295 295 294 293 293 292 292 293 294 298 293 294 294 291 291 291 290
307 306 305 303 301 300 298 298 297 297 295 295 294 293 292 292 292 292 292 292 291 290 290 292 292 292 292 292 292 291 291 291 290 289 288 289 290 292 292 290 288 289 289 290 292 291 293 295 293 292 292 291 291 291 292 294 295 293 293 292 292 292 293
306 305 304 302 300 299 299 298 297 297 295 294 293 292 292 291 291 292 292 291 292 291 290 292 292 292 292 292 293 291 290 290 289 289 287 288 289 290 296 299 297 288 289 290 291 291 292 295 291 291 291 291 291 290 290 291 293 294 294 294 293 293 292
306 305 303 301 300 299 298 297 297 296 295 294 293 292 293 291 290 290 290 292 298 293 291 293 292 292 292 292 293 290 290 289 289 287 288 288 288 290 290 294 296 293 292 291 290 291 292 293 291 289 290 291 290 289 288 288 289 290 292 292 291 293 291
306 304 302 301 300 298 298 296 295 294 294 293 292 292 292 291 291 290 290 293 295 293 292 292 293 292 293 293 293 292 290 290 290 287 288 290 290 288 289 289 293 290 290 290 290 290 290 291 290 289 290 290 290 289 290 291 293 290 288 290 289 289 289
305 304 302 301 300 298 297 295 294 294 293 292 292 291 290 290 290 288 288 287 290 292 294 293 293 292 293 293 292 292 289 289 288 289 288 288 287 288 288 288 288 291 290 290 290 290 290 291 292 290 288 289 288 291 292 289 291 294 289 289 290 290 290
305 304 302 301 298 296 295 295 295 294 293 292 291 290 289 289 288 287 286 288 288 291 296 297 294 293 292 292 292 292 291 289 290 289 288 286 285 286 286 286 288 290 290 290 290 290 290 290 291 293 288 290 290 291 291 291 289 289 289 289 288 288 288
304 304 302 300 297 295 295 295 294 293 292 291 290 289 288 288 288 287 286 286 287 289 293 296 295 294 292 292 291 291 291 290 291 291 289 287 287 287 286 285 289 293 290 290 290 290 290 290 291 288 289 289 290 290 291 290 289 288 287 287 287 287 286
304 302 301 299 297 296 295 294 293 292 291 291 289 288 287 288 287 287 287 287 289 290 291 294 294 294 293 291 291 291 291 291 291 289 289 287 286 286 286 286 289 291 290 290 290 290 290 290 289 289 289 289 289 290 289 289 287 287 287 286 286 285 286
Wind_Speed
8 7 6 5 4 5 6 5 5 5 5 5 6 4 4 3 3 4 4 4 5 4 4 5 5 4 5 5 5 5 5 5 4 5 4 5 5 4 5 6 5 4 3 3 2 3 3 7 8 3 1 8 7 5 7 9 9 10 10 12 12 11 10
7 7 6 5 5 5 7 5 6 6 6 5 4 4 3 3 3 4 4 5 5 4 4 5 5 6 6 6 6 6 5 6 6 4 5 6 6 5 4 5 4 5 4 3 4 5 3 6 4 8 10 8 6 5 5 7 8 8 9 9 10 10 10
7 7 6 6 5 5 7 5 5 6 5 5 4 3 3 3 3 4 5 5 4 4 5 5 5 6 6 6 5 5 6 7 6 6 6 5 6 5 5 4 5 5 4 5 6 8 3 3 6 6 6 8 9 7 4 7 9 8 7 9 11 11 10
10 10 8 6 6 6 6 5 5 5 4 5 3 2 2 3 4 4 5 4 4 4 5 6 6 6 5 5 5 7 7 7 6 7 7 6 5 6 6 6 6 6 5 6 6 6 5 4 6 4 5 6 4 6 6 6 7 8 8 6 10 10 10
11 9 10 9 7 7 7 6 5 5 4 3 1 2 2 3 4 5 4 4 5 5 6 6 6 6 5 6 6 6 6 6 7 7 6 7 5 5 5 5 5 5 6 6 4 4 4 5 5 5 5 5 2 3 4 6 7 7 10 9 8 10 10
9 9 9 8 7 8 7 7 6 6 5 4 2 3 2 4 4 5 5 5 5 5 6 6 5 6 6 6 6 6 7 7 6 6 7 6 6 5 5 4 5 6 6 4 4 4 3 2 4 5 4 3 2 4 3 6 7 4 8 10 7 10 9
7 8 7 9 7 7 7 7 6 6 5 5 4 3 3 4 4 4 5 5 5 5 6 6 6 6 7 6 6 7 6 5 6 6 6 5 6 5 5 7 7 6 6 6 5 6 6 6 5 5 5 4 3 4 3 5 6 7 6 9 6 8 9
7 7 6 7 8 8 6 6 5 5 5 4 4 3 3 4 5 5 5 5 5 6 6 7 7 6 6 6 6 6 6 6 6 6 6 7 8 7 7 7 6 7 6 6 6 6 5 5 3 4 5 6 4 4 6 4 6 7 8 7 5 9 10
6 6 6 6 6 7 7 7 6 5 5 4 3 3 3 5 6 5 5 5 5 7 7 7 7 6 6 7 6 6 7 4 6 7 5 6 7 7 7 6 8 7 6 6 6 6 6 5 5 5 5 5 6 6 5 6 7 4 8 10 4 7 10
8 8 8 8 8 6 6 6 6 5 4 3 4 3 4 4 5 5 5 5 7 7 8 7 7 6 6 6 6 6 6 4 6 6 5 7 6 6 7 8 7 7 7 6 6 6 6 5 6 6 6 7 4 4 5 7 6 6 8 7 6 7 10
7 8 8 9 8 7 6 5 5 5 4 3 3 4 5 5 4 5 6 6 7 7 8 7 7 7 6 6 6 6 4 4 6 6 6 6 7 6 7 8 7 7 6 6 7 6 6 6 7 7 7 6 6 8 3 5 4 4 7 7 5 6 9
7 7 7 8 8 8 7 6 6 5 4 3 4 5 5 5 5 5 6 6 7 7 7 7 7 6 6 6 5 6 4 5 6 7 5 6 6 7 8 9 7 7 6 6 6 7 6 7 7 7 7 7 7 5 5 3 4 5 3 7 7 7 8
8 8 8 9 8 7 6 6 5 5 5 3 4 5 6 5 5 6 5 7 7 7 7 6 7 6 6 6 5 6 4 5 7 7 6 6 6 7 8 9 8 7 6 5 7 6 6 6 6 7 7 7 7 6 4 4 5 6 4 4 7 8 8
8 7 8 8 8 6 5 5 5 5 4 4 4 6 6 6 5 5 6 7 8 8 8 7 6 6 7 6 5 5 4 5 7 6 6 8 7 7 8 8 7 6 5 7 6 6 7 6 6 7 7 7 8 7 7 5 7 8 7 5 5 7 8
7 7 8 7 7 5 5 5 4 4 5 3 6 7 7 5 5 6 7 7 8 8 7 7 5 6 7 6 5 4 5 6 7 6 6 7 7 6 6 7 7 6 5 5 5 7 6 7 7 7 7 7 7 7 6 6 5 5 8 9 10 8 8
7 7 8 6 5 5 4 4 4 6 5 5 5 7 7 6 6 7 7 7 8 7 7 6 5 6 6 7 6 5 5 6 6 7 7 6 6 5 7 6 6 5 5 6 6 6 6 7 6 7 7 6 7 7 7 6 4 7 8 8 7 9 10
8 7 6 5 5 4 4 5 5 7 6 6 7 6 7 7 7 8 8 7 7 7 7 6 6 5 6 7 7 7 6 6 6 6 6 6 5 6 5 6 5 5 4 5 6 6 6 6 7 6 6 6 6 7 6 6 6 4 6 8 9 8 8
7 6 5 5 5 5 6 6 6 7 7 7 7 8 6 5 7 7 8 8 8 7 7 7 7 6 5 5 7 7 6 6 6 6 6 5 5 4 5 4 4 4 4 5 5 6 6 7 6 6 6 6 6 6 6 6 7 6 6 9 8 8 8
7 6 6 5 6 6 7 6 6 5 7 8 6 6 7 5 6 8 7 7 7 7 6 7 7 7 6 6 7 7 6 5 5 5 4 4 4 4 4 4 3 3 3 4 4 4 5 6 6 7 6 6 6 6 7 7 7 7 7 7 7 8 9
7 6 6 6 6 7 6 6 6 6 5 8 8 8 6 8 5 7 6 6 7 7 7 7 7 7 7 7 7 7 6 5 5 5 4 4 4 4 4 3 3 3 3 3 4 4 4 5 5 5 5 4 5 6 7 7 7 7 7 7 7 7 8
6 7 7 7 7 7 6 6 6 5 6 8 8 8 8 9 6 6 6 7 6 6 7 7 6 6 6 7 7 6 6 5 5 5 5 4 4 4 3 3 3 2 2 2 3 3 3 4 3 5 5 4 5 6 6 6 7 7 8 8 9 9 8
5 7 7 8 8 7 6 6 6 6 6 6 6 7 7 8 9 8 6 6 6 5 7 6 5 7 8 7 7 7 6 5 5 5 5 5 4 4 4 3 3 3 4 8 9 6 5 3 3 4 4 3 4 5 6 6 6 7 7 8 9 8 8
7 7 8 9 8 7 6 6 6 7 6 7 7 7 7 6 8 8 8 6 5 5 5 4 7 11 9 8 6 6 6 5 4 4 4 5 4 4 4 4 4 9 9 10 10 11 11 9 6 4 2 3 4 5 5 6 7 7 7 9 9 9 11
7 7 8 9 8 8 7 6 7 7 7 6 7 6 7 8 7 6 7 7 7 5 4 5 11 12 12 12 8 6 6 5 4 4 4 4 4 3 3 2 2 5 7 7 6 10 11 10 9 8 8 7 5 3 4 7 6 6 8 8 6 8 9
8 8 9 10 9 8 7 7 8 7 7 7 6 6 8 7 7 7 7 7 7 6 5 7 13 13 12 12 10 7 5 5 5 4 3 4 3 2 2 3 3 4 4 5 4 5 7 10 10 10 11 10 10 9 6 4 5 7 6 8 8 7 6
8 8 9 10 9 8 8 8 8 8 7 6 6 7 7 7 7 6 7 8 6 5 5 8 13 13 13 12 12 8 6 5 6 4 3 3 3 3 3 4 4 5 4 7 5 4 4 6 10 11 11 10 10 11 11 11 9 5 3 6 6 7 6
9 9 9 9 9 9 8 8 7 7 7 6 7 7 6 7 6 6 7 8 7 5 5 9 13 14 13 12 11 9 5 6 5 4 3 3 3 3 3 3 4 5 4 4 4 4 5 7 6 6 6 5 4 6 9 10 9 10 7 5 5 6 5
9 10 10 10 9 9 9 8 8 7 7 8 8 8 8 8 6 6 6 7 7 6 5 11 13 14 13 12 11 8 6 5 5 4 3 3 3 3 3 3 4 4 4 4 4 2 5 7 7 6 5 4 4 4 4 5 5 4 4 4 4 3 3
9 10 10 10 10 10 9 10 9 7 7 6 5 6 5 6 7 7 6 7 8 7 5 12 13 13 13 11 10 6 5 5 5 4 4 3 3 2 2 3 4 5 4 4 5 5 5 7 7 7 5 4 4 4 4 3 4 5 3 3 3 3 3
11 11 11 11 10 10 9 8 7 7 9 7 7 6 6 5 6 8 7 7 8 7 5 8 13 12 11 11 8 6 5 5 5 4 3 3 3 3 3 4 4 4 4 4 4 5 8 11 7 7 5 4 4 4 4 3 4 4 5 5 5 6 7
12 12 12 12 11 9 9 8 8 8 10 9 8 6 6 6 4 5 7 7 7 8 6 7 11 11 11 9 7 6 5 6 5 4 3 3 4 4 5 9 6 4 5 4 4 8 7 9 7 5 6 5 5 5 4 4 3 3 5 5 5 7 7
12 12 11 11 10 10 9 9 7 6 7 8 8 6 6 7 5 4 5 6 8 8 6 7 10 11 11 10 7 4 6 6 6 4 4 4 4 6 4 6 8 6 4 4 8 9 8 8 6 4 5 6 5 4 2 2 3 4 5 6 6 6 5
10 11 10 10 9 9 8 8 8 8 6 7 7 6 6 7 7 5 4 5 7 7 7 6 7 11 10 10 9 6 4 7 6 4 4 4 6 5 4 4 5 7 7 8 9 9 9 7 6 3 4 6 5 3 0 1 2 2 4 4 4 3 3
11 9 9 9 8 8 8 9 8 8 8 7 7 6 6 5 6 5 4 4 6 6 7 8 7 10 10 10 10 9 4 5 5 5 5 4 4 5 4 4 3 5 6 8 9 9 9 8 6 4 3 4 1 1 1 1 3 3 4 4 4 4 5
13 12 10 10 10 8 6 8 9 9 8 8 8 7 5 5 6 5 3 3 4 7 7 11 7 9 10 10 9 10 7 4 4 6 5 4 3 4 2 2 2 3 4 7 8 9 9 9 7 4 4 5 6 4 1 3 3 4 5 5 6 6 6
12 11 11 11 12 11 8 8 7 8 9 8 8 7 6 5 5 5 4 3 1 4 6 8 12 9 10 10 10 9 9 6 4 3 6 4 2 1 1 1 1 3 4 6 8 8 9 9 7 4 6 6 4 3 4 5 4 6 6 5 5 6 6
9 10 11 10 11 12 10 8 8 7 8 8 8 7 6 5 5 5 5 3 2 2 4 7 9 13 10 11 10 10 9 8 6 3 3 3 0 0 1 1 1 3 5 7 8 8 8 8 4 5 4 6 7 6 4 5 6 4 4 5 6 6 6
Wind_Direction
140 140 137 128 117 119 103 98 93 81 74 77 88 79 83 89 95 79 71 66 66 57 71 74 79 71 64 46 45 44 45 42 46 62 55 24 47 350 355 7 359 346 4 69 53 26 320 340 335 331 347 7 2 28 46 40 43 36 26 21 11 5 360
122 126 123 120 118 118 104 93 89 83 75 64 67 86 79 87 84 82 73 70 66 65 77 77 71 68 64 57 44 43 44 43 42 48 59 37 35 22 358 2 355 358 340 351 17 16 12 352 341 356 343 346 359 23 41 46 45 43 33 25 13 6 359
124 116 121 128 122 118 104 96 90 84 82 79 66 72 88 80 80 76 74 73 78 83 81 84 79 69 62 61 52 55 51 56 39 47 56 49 44 32 31 11 26 358 13 8 15 9 356 36 345 340 343 348 347 334 22 44 46 37 34 22 17 6 1
140 137 135 130 123 113 109 99 93 91 85 90 84 75 87 89 80 72 77 80 80 85 85 79 74 75 68 67 58 54 51 53 48 50 49 45 47 43 34 33 36 36 34 26 9 2 8 357 342 342 341 346 325 329 351 37 40 41 26 25 19 6 360
148 148 146 142 138 127 124 117 111 104 96 89 98 113 98 93 85 73 75 82 83 84 78 80 77 77 72 67 58 57 54 51 51 54 53 46 41 49 43 37 42 41 38 31 7 0 6 343 346 341 338 323 323 354 336 22 26 31 22 9 17 8 360
147 146 142 135 140 134 132 128 131 124 128 117 150 132 129 98 90 85 84 90 85 83 88 82 78 74 71 66 65 61 57 54 49 55 57 51 47 47 47 42 48 41 37 9 15 13 360 338 16 355 315 306 324 332 350 28 7 360 34 2 5 7 356
144 145 142 136 140 134 134 138 142 144 147 156 167 164 155 97 80 97 101 96 98 94 89 87 80 73 72 72 66 63 58 52 54 55 59 56 51 46 41 46 38 36 30 18 13 19 16 15 15 5 330 333 359 360 339 30 5 7 2 4 353 3 359
138 137 136 138 138 133 134 135 143 140 143 168 162 172 118 90 105 108 106 100 93 86 85 82 76 70 71 72 67 66 58 49 53 56 53 51 49 41 41 41 41 38 24 18 16 20 9 21 15 349 1 5 355 11 2 29 4 49 350 339 345 2 2
127 121 119 124 124 129 138 143 148 154 160 156 158 121 94 107 112 107 100 98 91 85 85 85 82 77 72 73 65 61 63 48 61 56 49 52 50 44 45 37 46 35 24 17 18 15 16 8 21 20 26 34 13 353 2 4 12 343 5 355 335 4 357
132 137 139 135 130 130 138 145 148 161 156 146 134 110 102 105 115 113 106 96 84 87 89 86 85 80 72 69 69 66 66 54 65 58 48 54 46 45 46 41 46 38 25 16 24 23 16 24 30 35 40 41 19 51 6 358 15 353 345 360 348 334 350
131 129 132 133 133 135 142 137 133 142 160 154 129 118 110 113 104 105 101 87 82 86 94 91 88 84 82 73 69 65 61 64 69 58 50 54 46 48 50 46 37 40 18 27 28 21 28 29 34 35 38 35 45 59 30 24 334 1 336 340 353 331 340
125 126 129 131 136 142 148 146 152 156 143 142 120 115 110 96 90 82 88 84 84 95 96 96 92 85 84 83 71 69 55 65 69 64 45 51 44 50 50 48 35 36 20 27 28 28 29 32 32 37 36 37 35 52 49 33 20 325 347 338 335 337 335
132 135 139 139 142 149 150 148 148 147 148 130 132 112 105 104 98 91 81 86 91 98 98 95 97 96 87 79 77 71 60 66 69 64 54 44 48 48 52 51 38 33 15 28 33 27 27 25 27 32 31 33 33 30 45 47 45 336 327 326 323 329 343
133 135 135 141 144 149 147 150 147 138 119 133 123 108 108 102 97 98 90 90 102 108 107 104 102 102 91 88 76 78 68 66 70 61 59 50 42 47 49 52 41 30 20 40 28 25 25 22 22 31 30 29 30 23 24 24 20 351 338 343 335 344 341
132 136 137 145 145 144 148 146 135 106 110 136 118 114 108 104 104 99 94 97 105 109 108 109 110 103 102 98 89 78 74 69 69 62 58 55 43 42 47 51 37 26 21 41 31 30 23 22 23 30 27 26 27 18 18 29 11 14 345 339 353 353 357
136 140 141 144 139 134 129 114 111 111 116 113 111 113 112 109 107 100 96 101 107 107 109 106 103 107 108 107 100 86 75 72 69 65 61 54 48 42 48 46 34 23 17 36 28 29 26 25 22 32 26 23 26 19 14 23 23 12 0 351 349 355 0
138 143 140 138 131 116 109 102 109 113 118 117 108 99 104 111 103 101 102 101 105 110 107 105 103 106 113 111 104 93 80 71 68 66 66 59 49 47 45 46 26 21 18 39 27 29 23 26 27 24 26 17 28 21 16 16 26 23 1 6 1 10 354
143 143 133 125 117 110 104 106 108 118 118 110 111 108 95 99 102 100 106 111 108 106 110 112 111 107 104 102 100 94 85 77 70 66 61 57 54 50 46 47 21 20 20 37 25 30 21 28 21 25 22 15 23 20 23 23 18 20 20 19 360 2 0
148 142 129 114 110 107 107 107 111 114 121 113 104 101 107 94 104 103 102 104 106 107 107 110 113 115 111 103 95 90 86 79 71 65 59 54 50 45 48 35 23 26 27 37 23 26 28 27 25 24 19 16 18 21 25 18 16 17 22 18 12 360 12
150 136 120 113 109 107 108 113 115 116 115 116 116 109 102 100 87 102 101 102 105 111 109 107 110 110 108 102 99 95 87 78 71 67 57 52 46 45 40 31 24 19 27 22 30 22 16 31 30 28 17 14 16 30 25 19 12 17 19 18 15 19 6
145 121 113 113 110 110 111 110 111 109 110 110 113 116 117 109 100 94 97 98 100 107 109 109 108 107 103 104 102 95 93 88 78 69 59 48 45 44 37 28 15 2 38 34 31 18 49 35 31 33 13 18 23 37 32 19 20 21 22 24 22 12 14
121 109 113 114 112 111 112 114 111 109 106 105 102 104 106 113 111 98 87 93 96 98 106 113 121 120 110 100 100 98 93 87 83 76 61 52 41 39 31 22 14 11 48 52 47 47 47 59 64 50 14 27 32 42 39 32 26 28 30 32 26 18 19
111 112 119 119 119 116 117 116 112 106 103 104 107 108 105 100 103 110 106 96 92 96 98 104 113 111 113 118 107 103 93 84 78 71 72 64 47 37 29 20 20 50 45 49 49 53 54 54 59 75 70 62 58 54 50 46 36 33 36 35 27 18 25
117 121 126 124 123 124 121 117 110 107 104 104 106 109 109 106 103 103 106 108 102 94 96 108 110 106 107 108 107 102 101 91 75 70 68 71 61 45 27 23 7 35 39 32 31 49 61 63 71 73 66 62 59 76 70 58 49 41 42 42 24 25 29
120 128 129 129 129 128 125 120 116 115 112 108 103 103 103 106 106 107 103 99 99 104 104 119 111 108 105 103 103 103 99 95 84 71 62 62 48 42 49 53 38 31 33 34 36 39 59 71 74 72 68 63 57 47 48 67 68 53 44 48 36 22 19
126 133 134 134 133 131 129 124 123 121 116 117 113 106 111 109 107 107 108 106 102 104 108 118 109 107 104 102 101 100 95 92 90 79 65 60 53 41 35 57 55 40 18 28 34 34 67 75 69 67 63 61 56 51 43 38 40 65 73 62 56 32 15
133 137 137 135 135 135 133 131 126 122 121 115 112 110 106 107 109 108 113 111 109 109 110 119 110 107 105 102 101 98 94 92 88 81 69 56 57 54 44 63 66 48 19 27 25 34 72 80 76 64 56 48 43 36 33 27 33 43 48 67 62 51 356
139 140 140 138 138 135 130 126 126 129 128 131 130 128 127 118 115 114 112 113 112 109 121 119 111 108 107 104 100 95 94 93 89 78 64 54 57 55 47 63 74 71 45 32 17 15 88 89 82 75 66 53 47 42 35 21 14 25 46 47 57 48 8
145 143 142 141 139 138 139 140 137 134 119 106 98 103 98 111 121 120 117 117 114 115 124 119 114 114 111 109 105 98 98 95 88 78 55 40 48 53 53 61 73 64 50 41 10 32 102 99 86 82 72 57 55 46 35 12 9 16 36 48 45 24 355
150 149 146 144 144 143 140 137 135 133 120 121 122 120 125 122 129 127 126 124 121 124 129 130 123 121 118 117 108 103 103 95 89 83 64 39 39 52 61 62 67 73 59 43 12 68 93 99 92 89 84 68 60 58 17 340 4 6 353 344 338 345 9
153 151 149 147 146 144 141 140 142 143 135 135 127 131 128 116 113 129 133 135 138 137 144 149 135 130 128 126 120 121 116 106 93 91 69 40 45 51 48 60 67 67 66 43 39 68 77 95 94 101 98 84 60 47 7 346 340 340 329 312 354 2 14
149 145 144 143 144 143 146 145 138 125 125 122 126 128 122 117 108 106 133 141 145 138 149 161 151 143 139 133 123 118 117 110 105 84 86 64 47 55 41 42 45 47 62 57 59 63 67 89 99 101 114 98 85 61 346 313 14 18 5 5 357 1 0
130 134 139 137 140 139 134 127 131 127 121 122 124 122 117 118 117 112 117 139 148 149 152 165 169 156 149 141 133 125 122 118 116 111 90 90 69 40 41 34 32 35 57 61 63 65 65 73 98 97 103 102 100 93 308 358 49 50 29 16 342 349 348
121 125 136 137 133 130 134 133 131 128 125 117 114 113 112 112 108 102 100 131 148 166 165 165 180 170 160 152 145 131 133 127 136 120 107 77 73 71 39 23 15 23 55 69 67 65 66 66 80 89 83 110 138 129 26 127 64 54 46 12 0 358 356
141 144 144 139 134 127 127 131 133 131 128 128 124 119 114 110 110 101 83 106 158 172 181 169 168 181 168 163 157 143 132 157 147 125 96 83 71 56 29 10 18 2 63 83 81 74 67 64 59 71 55 57 50 51 124 75 70 62 47 24 11 11 359
146 143 145 145 136 134 136 130 128 128 128 126 125 125 124 122 117 110 90 72 95 165 174 179 166 169 178 170 166 154 146 141 148 118 116 107 104 70 301 330 347 56 92 92 86 80 73 66 61 56 54 60 77 95 77 61 54 51 36 22 24 8 353
132 133 139 139 135 135 136 133 131 135 134 133 133 129 133 129 124 126 128 115 91 137 167 171 178 166 172 180 170 160 145 136 139 134 123 138 192 267 335 0 35 94 108 98 87 76 69 68 79 77 84 81 74 62 65 61 51 49 45 28 14 359 348